Year,Month,Day,Hour,Minute,Value (Times are PST for temperature in C)
2015,07,18,00,00,18.00
2015,07,18,00,01,18.00
2015,07,18,00,02,17.90
2015,07,18,00,03,17.90
2015,07,18,00,04,17.90
2015,07,18,00,05,17.90
2015,07,18,00,06,17.90
2015,07,18,00,07,17.90
2015,07,18,00,08,17.90
2015,07,18,00,09,17.90
2015,07,18,00,10,17.90
2015,07,18,00,11,17.90
2015,07,18,00,12,17.80
2015,07,18,00,13,17.80
2015,07,18,00,14,17.80
2015,07,18,00,15,17.80
2015,07,18,00,16,17.80
2015,07,18,00,17,17.70
2015,07,18,00,18,17.70
2015,07,18,00,19,17.70
2015,07,18,00,20,17.70
2015,07,18,00,21,17.70
2015,07,18,00,22,17.60
2015,07,18,00,23,17.60
2015,07,18,00,24,17.60
2015,07,18,00,25,17.60
2015,07,18,00,26,17.60
2015,07,18,00,27,17.60
2015,07,18,00,28,17.60
2015,07,18,00,29,17.50
2015,07,18,00,30,17.50
2015,07,18,00,31,17.50
2015,07,18,00,32,17.50
2015,07,18,00,33,17.40
2015,07,18,00,34,17.40
2015,07,18,00,35,17.40
2015,07,18,00,36,17.40
2015,07,18,00,37,17.30
2015,07,18,00,38,17.30
2015,07,18,00,39,17.30
2015,07,18,00,40,17.30
2015,07,18,00,41,17.30
2015,07,18,00,42,17.30
2015,07,18,00,43,17.20
2015,07,18,00,44,17.20
2015,07,18,00,45,17.20
2015,07,18,00,46,17.20
2015,07,18,00,47,17.20
2015,07,18,00,48,17.20
2015,07,18,00,49,17.20
2015,07,18,00,50,17.20
2015,07,18,00,51,17.10
2015,07,18,00,52,17.10
2015,07,18,00,53,17.10
2015,07,18,00,54,17.00
2015,07,18,00,55,17.00
2015,07,18,00,56,17.00
2015,07,18,00,57,16.90
2015,07,18,00,58,16.90
2015,07,18,00,59,16.90
2015,07,18,01,00,16.90
2015,07,18,01,01,16.90
2015,07,18,01,02,16.90
2015,07,18,01,03,16.90
2015,07,18,01,04,16.90
2015,07,18,01,05,16.90
2015,07,18,01,06,16.90
2015,07,18,01,07,16.90
2015,07,18,01,08,16.80
2015,07,18,01,09,16.80
2015,07,18,01,10,16.80
2015,07,18,01,11,16.80
2015,07,18,01,12,16.80
2015,07,18,01,13,16.70
2015,07,18,01,14,16.70
2015,07,18,01,15,16.60
2015,07,18,01,16,16.60
2015,07,18,01,17,16.60
2015,07,18,01,18,16.60
2015,07,18,01,19,16.60
2015,07,18,01,20,16.60
2015,07,18,01,21,16.50
2015,07,18,01,22,16.50
2015,07,18,01,23,16.50
2015,07,18,01,24,16.40
2015,07,18,01,25,16.40
2015,07,18,01,26,16.40
2015,07,18,01,27,16.40
2015,07,18,01,28,16.40
2015,07,18,01,29,16.40
2015,07,18,01,30,16.30
2015,07,18,01,31,16.30
2015,07,18,01,32,16.30
2015,07,18,01,33,16.30
2015,07,18,01,34,16.30
2015,07,18,01,35,16.30
2015,07,18,01,36,16.30
2015,07,18,01,37,16.30
2015,07,18,01,38,16.30
2015,07,18,01,39,16.30
2015,07,18,01,40,16.30
2015,07,18,01,41,16.30
2015,07,18,01,42,16.30
2015,07,18,01,43,16.30
2015,07,18,01,44,16.20
2015,07,18,01,45,16.20
2015,07,18,01,46,16.20
2015,07,18,01,47,16.20
2015,07,18,01,48,16.20
2015,07,18,01,49,16.10
2015,07,18,01,50,16.10
2015,07,18,01,51,16.10
2015,07,18,01,52,16.10
2015,07,18,01,53,16.10
2015,07,18,01,54,16.00
2015,07,18,01,55,16.00
2015,07,18,01,56,16.00
2015,07,18,01,57,16.00
2015,07,18,01,58,15.90
2015,07,18,01,59,15.90
2015,07,18,02,00,15.90
2015,07,18,02,01,15.90
2015,07,18,02,02,15.80
2015,07,18,02,03,15.80
2015,07,18,02,04,15.80
2015,07,18,02,05,15.80
2015,07,18,02,06,15.80
2015,07,18,02,07,15.80
2015,07,18,02,08,15.80
2015,07,18,02,09,15.70
2015,07,18,02,10,15.80
2015,07,18,02,11,15.80
2015,07,18,02,12,15.80
2015,07,18,02,13,15.80
2015,07,18,02,14,15.80
2015,07,18,02,15,15.80
2015,07,18,02,16,15.80
2015,07,18,02,17,15.80
2015,07,18,02,18,15.70
2015,07,18,02,19,15.70
2015,07,18,02,20,15.70
2015,07,18,02,21,15.70
2015,07,18,02,22,15.80
2015,07,18,02,23,15.80
2015,07,18,02,24,15.80
2015,07,18,02,25,15.90
2015,07,18,02,26,15.90
2015,07,18,02,27,15.90
2015,07,18,02,28,15.80
2015,07,18,02,29,15.80
2015,07,18,02,30,15.80
2015,07,18,02,31,15.80
2015,07,18,02,32,15.80
2015,07,18,02,33,15.80
2015,07,18,02,34,15.80
2015,07,18,02,35,15.80
2015,07,18,02,36,15.80
2015,07,18,02,37,15.80
2015,07,18,02,38,15.80
2015,07,18,02,39,15.80
2015,07,18,02,40,15.80
2015,07,18,02,41,15.80
2015,07,18,02,42,15.80
2015,07,18,02,43,15.70
2015,07,18,02,44,15.70
2015,07,18,02,45,15.70
2015,07,18,02,46,15.70
2015,07,18,02,47,15.60
2015,07,18,02,48,15.60
2015,07,18,02,49,15.60
2015,07,18,02,50,15.60
2015,07,18,02,51,15.60
2015,07,18,02,52,15.60
2015,07,18,02,53,15.60
2015,07,18,02,54,15.70
2015,07,18,02,55,15.70
2015,07,18,02,56,15.70
2015,07,18,02,57,15.70
2015,07,18,02,58,15.70
2015,07,18,02,59,15.70
2015,07,18,03,00,15.70
2015,07,18,03,01,15.70
2015,07,18,03,02,15.70
2015,07,18,03,03,15.70
2015,07,18,03,04,15.70
2015,07,18,03,05,15.70
2015,07,18,03,06,15.70
2015,07,18,03,07,15.70
2015,07,18,03,08,15.70
2015,07,18,03,09,15.60
2015,07,18,03,10,15.60
2015,07,18,03,11,15.60
2015,07,18,03,12,15.60
2015,07,18,03,13,15.50
2015,07,18,03,14,15.50
2015,07,18,03,15,15.40
2015,07,18,03,16,15.40
2015,07,18,03,17,15.40
2015,07,18,03,18,15.40
2015,07,18,03,19,15.30
2015,07,18,03,20,15.30
2015,07,18,03,21,15.30
2015,07,18,03,22,15.30
2015,07,18,03,23,15.30
2015,07,18,03,24,15.20
2015,07,18,03,25,15.20
2015,07,18,03,26,15.20
2015,07,18,03,27,15.20
2015,07,18,03,28,15.20
2015,07,18,03,29,15.20
2015,07,18,03,30,15.20
2015,07,18,03,31,15.20
2015,07,18,03,32,15.20
2015,07,18,03,33,15.20
2015,07,18,03,34,15.20
2015,07,18,03,35,15.10
2015,07,18,03,36,15.10
2015,07,18,03,37,15.10
2015,07,18,03,38,15.10
2015,07,18,03,39,15.10
2015,07,18,03,40,15.10
2015,07,18,03,41,15.10
2015,07,18,03,42,15.00
2015,07,18,03,43,15.00
2015,07,18,03,44,15.00
2015,07,18,03,45,14.90
2015,07,18,03,46,14.90
2015,07,18,03,47,14.90
2015,07,18,03,48,14.90
2015,07,18,03,49,14.90
2015,07,18,03,50,14.80
2015,07,18,03,51,14.80
2015,07,18,03,52,14.80
2015,07,18,03,53,14.80
2015,07,18,03,54,14.80
2015,07,18,03,55,14.80
2015,07,18,03,56,14.80
2015,07,18,03,57,14.80
2015,07,18,03,58,14.70
2015,07,18,03,59,14.70
2015,07,18,04,00,14.70
2015,07,18,04,01,14.70
2015,07,18,04,02,14.70
2015,07,18,04,03,14.70
2015,07,18,04,04,14.60
2015,07,18,04,05,14.60
2015,07,18,04,06,14.60
2015,07,18,04,07,14.60
2015,07,18,04,08,14.60
2015,07,18,04,09,14.60
2015,07,18,04,10,14.50
2015,07,18,04,11,14.50
2015,07,18,04,12,14.40
2015,07,18,04,13,14.40
2015,07,18,04,14,14.40
2015,07,18,04,15,14.40
2015,07,18,04,16,14.40
2015,07,18,04,17,14.40
2015,07,18,04,18,14.40
2015,07,18,04,19,14.40
2015,07,18,04,20,14.40
2015,07,18,04,21,14.40
2015,07,18,04,22,14.40
2015,07,18,04,23,14.30
2015,07,18,04,24,14.30
2015,07,18,04,25,14.30
2015,07,18,04,26,14.30
2015,07,18,04,27,14.30
2015,07,18,04,28,14.30
2015,07,18,04,29,14.30
2015,07,18,04,30,14.30
2015,07,18,04,31,14.30
2015,07,18,04,32,14.30
2015,07,18,04,33,14.30
2015,07,18,04,34,14.30
2015,07,18,04,35,14.20
2015,07,18,04,36,14.20
2015,07,18,04,37,14.20
2015,07,18,04,38,14.20
2015,07,18,04,39,14.20
2015,07,18,04,40,14.20
2015,07,18,04,41,14.20
2015,07,18,04,42,14.20
2015,07,18,04,43,14.20
2015,07,18,04,44,14.20
2015,07,18,04,45,14.20
2015,07,18,04,46,14.20
2015,07,18,04,47,14.10
2015,07,18,04,48,14.10
2015,07,18,04,49,14.10
2015,07,18,04,50,14.10
2015,07,18,04,51,14.10
2015,07,18,04,52,14.10
2015,07,18,04,53,14.10
2015,07,18,04,54,14.10
2015,07,18,04,55,14.10
2015,07,18,04,56,14.10
2015,07,18,04,57,14.10
2015,07,18,04,58,14.10
2015,07,18,04,59,14.00
2015,07,18,05,00,14.00
2015,07,18,05,01,14.00
2015,07,18,05,02,14.00
2015,07,18,05,03,14.00
2015,07,18,05,04,13.90
2015,07,18,05,05,13.90
2015,07,18,05,06,13.90
2015,07,18,05,07,13.90
2015,07,18,05,08,13.90
2015,07,18,05,09,13.90
2015,07,18,05,10,13.80
2015,07,18,05,11,13.80
2015,07,18,05,12,13.80
2015,07,18,05,13,13.80
2015,07,18,05,14,13.80
2015,07,18,05,15,13.80
2015,07,18,05,16,13.80
2015,07,18,05,17,13.80
2015,07,18,05,18,13.80
2015,07,18,05,19,13.80
2015,07,18,05,20,13.80
2015,07,18,05,21,13.80
2015,07,18,05,22,13.80
2015,07,18,05,23,13.80
2015,07,18,05,24,13.80
2015,07,18,05,25,13.80
2015,07,18,05,26,13.80
2015,07,18,05,27,13.80
2015,07,18,05,28,13.80
2015,07,18,05,29,13.80
2015,07,18,05,30,13.80
2015,07,18,05,31,13.80
2015,07,18,05,32,13.80
2015,07,18,05,33,13.80
2015,07,18,05,34,13.80
2015,07,18,05,35,13.80
2015,07,18,05,36,13.80
2015,07,18,05,37,13.80
2015,07,18,05,38,13.80
2015,07,18,05,39,13.80
2015,07,18,05,40,13.80
2015,07,18,05,41,13.80
2015,07,18,05,42,13.80
2015,07,18,05,43,13.80
2015,07,18,05,44,13.90
2015,07,18,05,45,13.90
2015,07,18,05,46,13.90
2015,07,18,05,47,13.90
2015,07,18,05,48,13.90
2015,07,18,05,49,13.90
2015,07,18,05,50,13.90
2015,07,18,05,51,13.90
2015,07,18,05,52,13.90
2015,07,18,05,53,13.90
2015,07,18,05,54,13.90
2015,07,18,05,55,13.90
2015,07,18,05,56,13.90
2015,07,18,05,57,13.90
2015,07,18,05,58,14.00
2015,07,18,05,59,14.10
2015,07,18,06,00,14.10
2015,07,18,06,01,14.20
2015,07,18,06,02,14.30
2015,07,18,06,03,14.30
2015,07,18,06,04,14.40
2015,07,18,06,05,14.40
2015,07,18,06,06,14.50
2015,07,18,06,07,14.60
2015,07,18,06,08,14.60
2015,07,18,06,09,14.60
2015,07,18,06,10,14.60
2015,07,18,06,11,14.70
2015,07,18,06,12,14.70
2015,07,18,06,13,14.70
2015,07,18,06,14,14.80
2015,07,18,06,15,14.80
2015,07,18,06,16,14.80
2015,07,18,06,17,14.80
2015,07,18,06,18,14.80
2015,07,18,06,19,14.90
2015,07,18,06,20,14.90
2015,07,18,06,21,14.90
2015,07,18,06,22,14.90
2015,07,18,06,23,14.90
2015,07,18,06,24,15.00
2015,07,18,06,25,15.00
2015,07,18,06,26,15.00
2015,07,18,06,27,15.00
2015,07,18,06,28,15.10
2015,07,18,06,29,15.10
2015,07,18,06,30,15.10
2015,07,18,06,31,15.20
2015,07,18,06,32,15.20
2015,07,18,06,33,15.30
2015,07,18,06,34,15.30
2015,07,18,06,35,15.40
2015,07,18,06,36,15.40
2015,07,18,06,37,15.50
2015,07,18,06,38,15.50
2015,07,18,06,39,15.60
2015,07,18,06,40,15.60
2015,07,18,06,41,15.60
2015,07,18,06,42,15.60
2015,07,18,06,43,15.60
2015,07,18,06,44,15.70
2015,07,18,06,45,15.70
2015,07,18,06,46,15.80
2015,07,18,06,47,15.90
2015,07,18,06,48,16.00
2015,07,18,06,49,16.10
2015,07,18,06,50,16.10
2015,07,18,06,51,16.10
2015,07,18,06,52,16.20
2015,07,18,06,53,16.20
2015,07,18,06,54,16.30
2015,07,18,06,55,16.40
2015,07,18,06,56,16.40
2015,07,18,06,57,16.50
2015,07,18,06,58,16.60
2015,07,18,06,59,16.60
2015,07,18,07,00,16.70
2015,07,18,07,01,16.70
2015,07,18,07,02,16.80
2015,07,18,07,03,16.90
2015,07,18,07,04,16.90
2015,07,18,07,05,17.00
2015,07,18,07,06,17.00
2015,07,18,07,07,17.00
2015,07,18,07,08,17.10
2015,07,18,07,09,17.10
2015,07,18,07,10,17.20
2015,07,18,07,11,17.30
2015,07,18,07,12,17.30
2015,07,18,07,13,17.40
2015,07,18,07,14,17.50
2015,07,18,07,15,17.60
2015,07,18,07,16,17.70
2015,07,18,07,17,17.70
2015,07,18,07,18,17.80
2015,07,18,07,19,17.90
2015,07,18,07,20,18.00
2015,07,18,07,21,18.00
2015,07,18,07,22,18.10
2015,07,18,07,23,18.20
2015,07,18,07,24,18.30
2015,07,18,07,25,18.40
2015,07,18,07,26,18.40
2015,07,18,07,27,18.60
2015,07,18,07,28,18.70
2015,07,18,07,29,18.80
2015,07,18,07,30,18.90
2015,07,18,07,31,19.00
2015,07,18,07,32,19.10
2015,07,18,07,33,19.20
2015,07,18,07,34,19.30
2015,07,18,07,35,19.40
2015,07,18,07,36,19.60
2015,07,18,07,37,19.70
2015,07,18,07,38,19.80
2015,07,18,07,39,19.90
2015,07,18,07,40,20.00
2015,07,18,07,41,20.20
2015,07,18,07,42,20.30
2015,07,18,07,43,20.40
2015,07,18,07,44,20.50
2015,07,18,07,45,20.60
2015,07,18,07,46,20.70
2015,07,18,07,47,20.80
2015,07,18,07,48,20.80
2015,07,18,07,49,20.90
2015,07,18,07,50,20.90
2015,07,18,07,51,20.90
2015,07,18,07,52,20.80
2015,07,18,07,53,20.80
2015,07,18,07,54,20.80
2015,07,18,07,55,20.80
2015,07,18,07,56,20.70
2015,07,18,07,57,20.70
2015,07,18,07,58,20.70
2015,07,18,07,59,20.70
2015,07,18,08,00,20.70
2015,07,18,08,01,20.70
2015,07,18,08,02,20.80
2015,07,18,08,03,20.90
2015,07,18,08,04,20.90
2015,07,18,08,05,21.00
2015,07,18,08,06,21.10
2015,07,18,08,07,21.20
2015,07,18,08,08,21.20
2015,07,18,08,09,21.20
2015,07,18,08,10,21.20
2015,07,18,08,11,21.20
2015,07,18,08,12,21.20
2015,07,18,08,13,21.20
2015,07,18,08,14,21.20
2015,07,18,08,15,21.20
2015,07,18,08,16,21.20
2015,07,18,08,17,21.20
2015,07,18,08,18,21.20
2015,07,18,08,19,21.20
2015,07,18,08,20,21.20
2015,07,18,08,21,21.20
2015,07,18,08,22,21.10
2015,07,18,08,23,21.10
2015,07,18,08,24,21.10
2015,07,18,08,25,21.20
2015,07,18,08,26,21.20
2015,07,18,08,27,21.20
2015,07,18,08,28,21.30
2015,07,18,08,29,21.40
2015,07,18,08,30,21.40
2015,07,18,08,31,21.50
2015,07,18,08,32,21.50
2015,07,18,08,33,21.60
2015,07,18,08,34,21.60
2015,07,18,08,35,21.60
2015,07,18,08,36,21.70
2015,07,18,08,37,21.70
2015,07,18,08,38,21.70
2015,07,18,08,39,21.70
2015,07,18,08,40,21.70
2015,07,18,08,41,21.80
2015,07,18,08,42,21.80
2015,07,18,08,43,21.80
2015,07,18,08,44,21.80
2015,07,18,08,45,21.80
2015,07,18,08,46,21.80
2015,07,18,08,47,21.80
2015,07,18,08,48,21.90
2015,07,18,08,49,21.90
2015,07,18,08,50,21.90
2015,07,18,08,51,22.00
2015,07,18,08,52,22.10
2015,07,18,08,53,22.10
2015,07,18,08,54,22.00
2015,07,18,08,55,22.00
2015,07,18,08,56,22.00
2015,07,18,08,57,22.10
2015,07,18,08,58,22.10
2015,07,18,08,59,22.20
2015,07,18,09,00,22.30
2015,07,18,09,01,22.30
2015,07,18,09,02,22.30
2015,07,18,09,03,22.10
2015,07,18,09,04,22.00
2015,07,18,09,05,21.90
2015,07,18,09,06,21.90
2015,07,18,09,07,21.90
2015,07,18,09,08,21.90
2015,07,18,09,09,21.90
2015,07,18,09,10,22.00
2015,07,18,09,11,22.10
2015,07,18,09,12,22.10
2015,07,18,09,13,22.10
2015,07,18,09,14,22.20
2015,07,18,09,15,22.10
2015,07,18,09,16,22.10
2015,07,18,09,17,22.10
2015,07,18,09,18,22.10
2015,07,18,09,19,22.10
2015,07,18,09,20,22.10
2015,07,18,09,21,22.10
2015,07,18,09,22,22.10
2015,07,18,09,23,22.20
2015,07,18,09,24,22.20
2015,07,18,09,25,22.30
2015,07,18,09,26,22.30
2015,07,18,09,27,22.40
2015,07,18,09,28,22.40
2015,07,18,09,29,22.50
2015,07,18,09,30,22.50
2015,07,18,09,31,22.50
2015,07,18,09,32,22.50
2015,07,18,09,33,22.50
2015,07,18,09,34,22.50
2015,07,18,09,35,22.50
2015,07,18,09,36,22.50
2015,07,18,09,37,22.60
2015,07,18,09,38,22.70
2015,07,18,09,39,22.70
2015,07,18,09,40,22.70
2015,07,18,09,41,22.70
2015,07,18,09,42,22.80
2015,07,18,09,43,22.70
2015,07,18,09,44,22.80
2015,07,18,09,45,22.80
2015,07,18,09,46,22.80
2015,07,18,09,47,22.70
2015,07,18,09,48,22.60
2015,07,18,09,49,22.70
2015,07,18,09,50,22.70
2015,07,18,09,51,22.60
2015,07,18,09,52,22.50
2015,07,18,09,53,22.50
2015,07,18,09,54,22.50
2015,07,18,09,55,22.60
2015,07,18,09,56,22.70
2015,07,18,09,57,22.80
2015,07,18,09,58,22.90
2015,07,18,09,59,22.90
2015,07,18,10,00,22.90
2015,07,18,10,01,22.70
2015,07,18,10,02,22.70
2015,07,18,10,03,22.60
2015,07,18,10,04,22.70
2015,07,18,10,05,22.70
2015,07,18,10,06,22.70
2015,07,18,10,07,22.80
2015,07,18,10,08,22.90
2015,07,18,10,09,23.00
2015,07,18,10,10,23.10
2015,07,18,10,11,23.10
2015,07,18,10,12,23.20
2015,07,18,10,13,23.10
2015,07,18,10,14,23.00
2015,07,18,10,15,22.90
2015,07,18,10,16,22.90
2015,07,18,10,17,23.00
2015,07,18,10,18,23.10
2015,07,18,10,19,23.20
2015,07,18,10,20,23.20
2015,07,18,10,21,23.10
2015,07,18,10,22,23.20
2015,07,18,10,23,23.40
2015,07,18,10,24,23.50
2015,07,18,10,25,23.60
2015,07,18,10,26,23.70
2015,07,18,10,27,23.80
2015,07,18,10,28,23.90
2015,07,18,10,29,23.90
2015,07,18,10,30,23.80
2015,07,18,10,31,23.80
2015,07,18,10,32,23.80
2015,07,18,10,33,23.80
2015,07,18,10,34,23.90
2015,07,18,10,35,24.00
2015,07,18,10,36,24.00
2015,07,18,10,37,23.90
2015,07,18,10,38,24.00
2015,07,18,10,39,23.90
2015,07,18,10,40,23.80
2015,07,18,10,41,23.80
2015,07,18,10,42,23.80
2015,07,18,10,43,23.80
2015,07,18,10,44,23.70
2015,07,18,10,45,23.70
2015,07,18,10,46,23.70
2015,07,18,10,47,23.70
2015,07,18,10,48,23.60
2015,07,18,10,49,23.50
2015,07,18,10,50,23.50
2015,07,18,10,51,23.50
2015,07,18,10,52,23.60
2015,07,18,10,53,23.60
2015,07,18,10,54,23.60
2015,07,18,10,55,23.70
2015,07,18,10,56,23.80
2015,07,18,10,57,23.90
2015,07,18,10,58,24.00
2015,07,18,10,59,24.00
2015,07,18,11,00,23.90
2015,07,18,11,01,23.80
2015,07,18,11,02,23.80
2015,07,18,11,03,23.80
2015,07,18,11,04,23.80
2015,07,18,11,05,23.80
2015,07,18,11,06,23.80
2015,07,18,11,07,23.90
2015,07,18,11,08,24.00
2015,07,18,11,09,24.10
2015,07,18,11,10,24.10
2015,07,18,11,11,24.10
2015,07,18,11,12,24.10
2015,07,18,11,13,24.10
2015,07,18,11,14,24.20
2015,07,18,11,15,24.40
2015,07,18,11,16,24.40
2015,07,18,11,17,24.30
2015,07,18,11,18,24.20
2015,07,18,11,19,24.10
2015,07,18,11,20,23.80
2015,07,18,11,21,23.60
2015,07,18,11,22,23.50
2015,07,18,11,23,23.30
2015,07,18,11,24,23.20
2015,07,18,11,25,23.20
2015,07,18,11,26,23.20
2015,07,18,11,27,23.20
2015,07,18,11,28,23.10
2015,07,18,11,29,23.00
2015,07,18,11,30,23.00
2015,07,18,11,31,23.00
2015,07,18,11,32,23.00
2015,07,18,11,33,22.90
2015,07,18,11,34,22.90
2015,07,18,11,35,22.90
2015,07,18,11,36,22.90
2015,07,18,11,37,23.00
2015,07,18,11,38,23.10
2015,07,18,11,39,23.10
2015,07,18,11,40,23.10
2015,07,18,11,41,23.20
2015,07,18,11,42,23.20
2015,07,18,11,43,23.20
2015,07,18,11,44,23.20
2015,07,18,11,45,23.30
2015,07,18,11,46,23.40
2015,07,18,11,47,23.40
2015,07,18,11,48,23.50
2015,07,18,11,49,23.60
2015,07,18,11,50,23.50
2015,07,18,11,51,23.50
2015,07,18,11,52,23.50
2015,07,18,11,53,23.50
2015,07,18,11,54,23.40
2015,07,18,11,55,23.40
2015,07,18,11,56,23.40
2015,07,18,11,57,23.40
2015,07,18,11,58,23.50
2015,07,18,11,59,23.60
2015,07,18,12,00,23.60
2015,07,18,12,01,23.60
2015,07,18,12,02,23.50
2015,07,18,12,03,23.50
2015,07,18,12,04,23.70
2015,07,18,12,05,24.00
2015,07,18,12,06,24.10
2015,07,18,12,07,24.20
2015,07,18,12,08,24.20
2015,07,18,12,09,24.10
2015,07,18,12,10,23.90
2015,07,18,12,11,23.90
2015,07,18,12,12,23.80
2015,07,18,12,13,23.80
2015,07,18,12,14,23.80
2015,07,18,12,15,24.00
2015,07,18,12,16,24.10
2015,07,18,12,17,24.20
2015,07,18,12,18,24.20
2015,07,18,12,19,24.20
2015,07,18,12,20,24.10
2015,07,18,12,21,24.10
2015,07,18,12,22,24.20
2015,07,18,12,23,24.20
2015,07,18,12,24,24.20
2015,07,18,12,25,24.30
2015,07,18,12,26,24.40
2015,07,18,12,27,24.60
2015,07,18,12,28,24.70
2015,07,18,12,29,24.80
2015,07,18,12,30,24.80
2015,07,18,12,31,24.90
2015,07,18,12,32,25.00
2015,07,18,12,33,25.10
2015,07,18,12,34,25.30
2015,07,18,12,35,25.50
2015,07,18,12,36,25.70
2015,07,18,12,37,25.80
2015,07,18,12,38,26.00
2015,07,18,12,39,26.10
2015,07,18,12,40,26.10
2015,07,18,12,41,26.10
2015,07,18,12,42,26.10
2015,07,18,12,43,26.20
2015,07,18,12,44,26.30
2015,07,18,12,45,26.30
2015,07,18,12,46,26.30
2015,07,18,12,47,26.30
2015,07,18,12,48,26.40
2015,07,18,12,49,26.40
2015,07,18,12,50,26.40
2015,07,18,12,51,26.40
2015,07,18,12,52,26.40
2015,07,18,12,53,26.40
2015,07,18,12,54,26.50
2015,07,18,12,55,26.50
2015,07,18,12,56,26.40
2015,07,18,12,57,26.40
2015,07,18,12,58,26.40
2015,07,18,12,59,26.40
2015,07,18,13,00,26.50
2015,07,18,13,01,26.50
2015,07,18,13,02,26.50
2015,07,18,13,03,26.50
2015,07,18,13,04,26.50
2015,07,18,13,05,26.60
2015,07,18,13,06,26.60
2015,07,18,13,07,26.70
2015,07,18,13,08,26.80
2015,07,18,13,09,26.80
2015,07,18,13,10,26.80
2015,07,18,13,11,26.90
2015,07,18,13,12,26.90
2015,07,18,13,13,26.90
2015,07,18,13,14,26.90
2015,07,18,13,15,27.00
2015,07,18,13,16,27.00
2015,07,18,13,17,27.20
2015,07,18,13,18,27.20
2015,07,18,13,19,27.10
2015,07,18,13,20,27.00
2015,07,18,13,21,27.00
2015,07,18,13,22,27.00
2015,07,18,13,23,27.10
2015,07,18,13,24,27.20
2015,07,18,13,25,27.20
2015,07,18,13,26,27.20
2015,07,18,13,27,27.20
2015,07,18,13,28,27.20
2015,07,18,13,29,27.30
2015,07,18,13,30,27.40
2015,07,18,13,31,27.40
2015,07,18,13,32,27.40
2015,07,18,13,33,27.40
2015,07,18,13,34,27.50
2015,07,18,13,35,27.50
2015,07,18,13,36,27.50
2015,07,18,13,37,27.50
2015,07,18,13,38,27.50
2015,07,18,13,39,27.50
2015,07,18,13,40,27.50
2015,07,18,13,41,27.40
2015,07,18,13,42,27.30
2015,07,18,13,43,27.30
2015,07,18,13,44,27.30
2015,07,18,13,45,27.30
2015,07,18,13,46,27.30
2015,07,18,13,47,27.40
2015,07,18,13,48,27.40
2015,07,18,13,49,27.40
2015,07,18,13,50,27.40
2015,07,18,13,51,27.30
2015,07,18,13,52,27.30
2015,07,18,13,53,27.40
2015,07,18,13,54,27.50
2015,07,18,13,55,27.40
2015,07,18,13,56,27.50
2015,07,18,13,57,27.60
2015,07,18,13,58,27.60
2015,07,18,13,59,27.60
2015,07,18,14,00,27.70
2015,07,18,14,01,27.80
2015,07,18,14,02,27.70
2015,07,18,14,03,27.70
2015,07,18,14,04,27.60
2015,07,18,14,05,27.40
2015,07,18,14,06,27.30
2015,07,18,14,07,27.10
2015,07,18,14,08,27.10
2015,07,18,14,09,27.10
2015,07,18,14,10,27.20
2015,07,18,14,11,27.20
2015,07,18,14,12,27.20
2015,07,18,14,13,27.20
2015,07,18,14,14,27.20
2015,07,18,14,15,27.20
2015,07,18,14,16,27.30
2015,07,18,14,17,27.40
2015,07,18,14,18,27.40
2015,07,18,14,19,27.30
2015,07,18,14,20,27.30
2015,07,18,14,21,27.50
2015,07,18,14,22,27.60
2015,07,18,14,23,27.70
2015,07,18,14,24,27.80
2015,07,18,14,25,27.90
2015,07,18,14,26,27.90
2015,07,18,14,27,27.90
2015,07,18,14,28,27.90
2015,07,18,14,29,27.90
2015,07,18,14,30,27.90
2015,07,18,14,31,27.90
2015,07,18,14,32,27.90
2015,07,18,14,33,28.00
2015,07,18,14,34,28.10
2015,07,18,14,35,28.20
2015,07,18,14,36,28.30
2015,07,18,14,37,28.30
2015,07,18,14,38,28.40
2015,07,18,14,39,28.40
2015,07,18,14,40,28.30
2015,07,18,14,41,28.40
2015,07,18,14,42,28.40
2015,07,18,14,43,28.30
2015,07,18,14,44,28.20
2015,07,18,14,45,28.10
2015,07,18,14,46,28.10
2015,07,18,14,47,28.20
2015,07,18,14,48,28.30
2015,07,18,14,49,28.30
2015,07,18,14,50,28.30
2015,07,18,14,51,28.30
2015,07,18,14,52,28.30
2015,07,18,14,53,28.30
2015,07,18,14,54,28.30
2015,07,18,14,55,28.40
2015,07,18,14,56,28.60
2015,07,18,14,57,28.70
2015,07,18,14,58,28.80
2015,07,18,14,59,28.90
2015,07,18,15,00,28.80
2015,07,18,15,01,28.80
2015,07,18,15,02,28.80
2015,07,18,15,03,28.80
2015,07,18,15,04,28.80
2015,07,18,15,05,28.80
2015,07,18,15,06,28.90
2015,07,18,15,07,28.90
2015,07,18,15,08,28.90
2015,07,18,15,09,28.90
2015,07,18,15,10,28.90
2015,07,18,15,11,28.90
2015,07,18,15,12,29.00
2015,07,18,15,13,29.10
2015,07,18,15,14,29.10
2015,07,18,15,15,29.20
2015,07,18,15,16,29.30
2015,07,18,15,17,29.40
2015,07,18,15,18,29.40
2015,07,18,15,19,29.50
2015,07,18,15,20,29.30
2015,07,18,15,21,29.30
2015,07,18,15,22,29.20
2015,07,18,15,23,29.30
2015,07,18,15,24,29.30
2015,07,18,15,25,29.30
2015,07,18,15,26,29.50
2015,07,18,15,27,29.60
2015,07,18,15,28,29.70
2015,07,18,15,29,29.70
2015,07,18,15,30,29.60
2015,07,18,15,31,29.60
2015,07,18,15,32,29.60
2015,07,18,15,33,29.70
2015,07,18,15,34,29.60
2015,07,18,15,35,29.60
2015,07,18,15,36,29.70
2015,07,18,15,37,29.70
2015,07,18,15,38,29.60
2015,07,18,15,39,29.50
2015,07,18,15,40,29.50
2015,07,18,15,41,29.40
2015,07,18,15,42,29.40
2015,07,18,15,43,29.40
2015,07,18,15,44,29.30
2015,07,18,15,45,29.20
2015,07,18,15,46,29.10
2015,07,18,15,47,29.10
2015,07,18,15,48,29.10
2015,07,18,15,49,29.10
2015,07,18,15,50,29.20
2015,07,18,15,51,29.30
2015,07,18,15,52,29.30
2015,07,18,15,53,29.30
2015,07,18,15,54,29.30
2015,07,18,15,55,29.20
2015,07,18,15,56,29.10
2015,07,18,15,57,29.10
2015,07,18,15,58,29.10
2015,07,18,15,59,29.10
2015,07,18,16,00,29.10
2015,07,18,16,01,29.10
2015,07,18,16,02,29.00
2015,07,18,16,03,29.00
2015,07,18,16,04,29.00
2015,07,18,16,05,29.10
2015,07,18,16,06,29.10
2015,07,18,16,07,29.10
2015,07,18,16,08,29.10
2015,07,18,16,09,29.20
2015,07,18,16,10,29.20
2015,07,18,16,11,29.30
2015,07,18,16,12,29.30
2015,07,18,16,13,29.30
2015,07,18,16,14,29.30
2015,07,18,16,15,29.40
2015,07,18,16,16,29.50
2015,07,18,16,17,29.60
2015,07,18,16,18,29.60
2015,07,18,16,19,29.70
2015,07,18,16,20,29.70
2015,07,18,16,21,29.70
2015,07,18,16,22,29.70
2015,07,18,16,23,29.70
2015,07,18,16,24,29.70
2015,07,18,16,25,29.80
2015,07,18,16,26,29.80
2015,07,18,16,27,29.90
2015,07,18,16,28,29.90
2015,07,18,16,29,29.90
2015,07,18,16,30,30.00
2015,07,18,16,31,30.00
2015,07,18,16,32,30.00
2015,07,18,16,33,30.10
2015,07,18,16,34,30.10
2015,07,18,16,35,30.10
2015,07,18,16,36,30.10
2015,07,18,16,37,30.10
2015,07,18,16,38,30.20
2015,07,18,16,39,30.20
2015,07,18,16,40,30.20
2015,07,18,16,41,30.10
2015,07,18,16,42,30.10
2015,07,18,16,43,30.00
2015,07,18,16,44,30.00
2015,07,18,16,45,30.00
2015,07,18,16,46,30.10
2015,07,18,16,47,30.20
2015,07,18,16,48,30.20
2015,07,18,16,49,30.00
2015,07,18,16,50,29.80
2015,07,18,16,51,29.70
2015,07,18,16,52,29.60
2015,07,18,16,53,29.60
2015,07,18,16,54,29.60
2015,07,18,16,55,29.60
2015,07,18,16,56,29.60
2015,07,18,16,57,29.50
2015,07,18,16,58,29.40
2015,07,18,16,59,29.10
2015,07,18,17,00,29.00
2015,07,18,17,01,28.70
2015,07,18,17,02,28.40
2015,07,18,17,03,28.30
2015,07,18,17,04,28.20
2015,07,18,17,05,28.00
2015,07,18,17,06,27.80
2015,07,18,17,07,27.60
2015,07,18,17,08,27.40
2015,07,18,17,09,27.40
2015,07,18,17,10,27.30
2015,07,18,17,11,27.30
2015,07,18,17,12,27.20
2015,07,18,17,13,27.20
2015,07,18,17,14,27.20
2015,07,18,17,15,27.20
2015,07,18,17,16,27.10
2015,07,18,17,17,27.10
2015,07,18,17,18,27.10
2015,07,18,17,19,27.10